Tracking 31027 objects as of 19-Jul-2025
HD Live streaming from Space Station
objects crossing your sky now

OPS 4682 DEB

Track OPS 4682 DEB now!
10-day predictions


NORAD ID: 38433
Int'l Code: 1965-027EN
Perigee: 1,202.7 km
Apogee: 1,244.5 km
Inclination: 90.3 °
Period: 109.8 minutes
Semi major axis: 7594 km
RCS: 0.0136 m2 (small)
Launch date: April 3, 1965
Source: United States (US)
Launch site: AIR FORCE WESTERN TEST RANGE (AFWTR)

Note: This is SATELLITE DEBRIS
Your satellite tracking list
STARLINK-3957
Track 1 satellite(s)




NASA's NSSDC Master Catalog

Two Line Element Set (TLE):
1 38433U 65027EN  25199.44427618  .00000587  00000-0  16235-2 0  9992
2 38433  90.2524   5.2202 0027528   7.5533 352.6005 13.11734262588083
Source of the keplerian elements: AFSPC